TimeEST,TemperatureF,Dew PointF,Humidity,Sea Level PressureIn,VisibilityMPH,Wind Direction,Wind SpeedMPH,Gust SpeedMPH,PrecipitationIn,Events,Conditions,WindDirDegrees,DateUTC
12:15 AM,24.8,23.0,93,30.39,10.0,Calm,Calm,-,N/A,,Clear,0,2012-11-29 05:15:00
12:35 AM,23.0,21.2,93,30.39,10.0,Calm,Calm,-,N/A,,Clear,0,2012-11-29 05:35:00
12:55 AM,23.0,23.0,100,30.39,10.0,Calm,Calm,-,N/A,,Clear,0,2012-11-29 05:55:00
1:15 AM,23.0,21.2,93,30.39,10.0,Calm,Calm,-,N/A,,Clear,0,2012-11-29 06:15:00
1:35 AM,23.0,21.2,93,30.40,10.0,Calm,Calm,-,N/A,,Clear,0,2012-11-29 06:35:00
1:55 AM,23.0,21.2,93,30.40,10.0,Calm,Calm,-,N/A,,Clear,0,2012-11-29 06:55:00
2:15 AM,21.2,21.2,100,30.40,10.0,Calm,Calm,-,N/A,,Clear,0,2012-11-29 07:15:00
2:35 AM,21.2,19.4,93,30.40,10.0,Calm,Calm,-,N/A,,Clear,0,2012-11-29 07:35:00
2:55 AM,21.2,21.2,100,30.40,10.0,Calm,Calm,-,N/A,,Clear,0,2012-11-29 07:55:00
3:15 AM,21.2,21.2,100,30.40,10.0,Calm,Calm,-,N/A,,Clear,0,2012-11-29 08:15:00
3:35 AM,21.2,21.2,100,30.40,10.0,Calm,Calm,-,N/A,,Clear,0,2012-11-29 08:35:00
3:55 AM,21.2,21.2,100,30.40,10.0,Calm,Calm,-,N/A,,Clear,0,2012-11-29 08:55:00
4:15 AM,21.2,21.2,100,30.40,10.0,Calm,Calm,-,N/A,,Clear,0,2012-11-29 09:15:00
4:35 AM,21.2,19.4,93,30.40,10.0,Calm,Calm,-,N/A,,Clear,0,2012-11-29 09:35:00
4:55 AM,19.4,19.4,100,30.41,10.0,Calm,Calm,-,N/A,,Clear,0,2012-11-29 09:55:00
5:15 AM,19.4,19.4,100,30.42,10.0,Calm,Calm,-,N/A,,Clear,0,2012-11-29 10:15:00
5:35 AM,21.2,21.2,100,30.42,10.0,Calm,Calm,-,N/A,,Clear,0,2012-11-29 10:35:00
5:55 AM,21.2,19.4,93,30.42,10.0,Calm,Calm,-,N/A,,Clear,0,2012-11-29 10:55:00
6:15 AM,21.2,19.4,93,30.43,10.0,Calm,Calm,-,N/A,,Clear,0,2012-11-29 11:15:00
8:55 AM,28.4,28.4,100,30.46,10.0,Calm,Calm,-,N/A,,Clear,0,2012-11-29 13:55:00
9:55 AM,37.4,28.4,70,30.47,10.0,Calm,Calm,-,N/A,,Clear,0,2012-11-29 14:55:00
10:55 AM,42.8,28.4,57,30.47,10.0,Calm,Calm,-,N/A,,Clear,0,2012-11-29 15:55:00
11:55 AM,46.4,26.6,46,30.44,10.0,Calm,Calm,-,N/A,,Clear,0,2012-11-29 16:55:00
12:45 PM,48.2,24.8,40,30.41,10.0,Calm,Calm,-,N/A,,Clear,0,2012-11-29 17:45:00
1:00 PM,48.2,24.8,40,30.41,10.0,SW,5.8,-,N/A,,Clear,230,2012-11-29 18:00:00
1:45 PM,50.0,23.0,35,30.38,10.0,SSW,5.8,-,N/A,,Clear,200,2012-11-29 18:45:00
2:45 PM,50.0,21.2,32,30.36,10.0,WSW,4.6,-,N/A,,Clear,250,2012-11-29 19:45:00
5:55 PM,33.8,28.4,81,30.36,10.0,South,6.9,-,N/A,,Clear,170,2012-11-29 22:55:00
6:45 PM,33.8,28.4,81,30.36,10.0,Calm,Calm,-,N/A,,Clear,0,2012-11-29 23:45:00
8:15 PM,28.4,28.4,100,30.37,10.0,Calm,Calm,-,N/A,,Clear,0,2012-11-30 01:15:00
8:35 PM,28.4,26.6,93,30.36,10.0,Calm,Calm,-,N/A,,Clear,0,2012-11-30 01:35:00
8:55 PM,28.4,26.6,93,30.36,10.0,Calm,Calm,-,N/A,,Clear,0,2012-11-30 01:55:00
9:15 PM,28.4,26.6,93,30.36,10.0,Calm,Calm,-,N/A,,Clear,0,2012-11-30 02:15:00
9:35 PM,26.6,24.8,93,30.36,10.0,Calm,Calm,-,N/A,,Clear,0,2012-11-30 02:35:00
9:55 PM,26.6,24.8,93,30.36,10.0,Calm,Calm,-,N/A,,Clear,0,2012-11-30 02:55:00
10:15 PM,26.6,24.8,93,30.36,10.0,Calm,Calm,-,N/A,,Clear,0,2012-11-30 03:15:00
10:35 PM,24.8,24.8,100,30.35,10.0,Calm,Calm,-,N/A,,Clear,0,2012-11-30 03:35:00
10:55 PM,24.8,24.8,100,30.35,10.0,Calm,Calm,-,N/A,,Clear,0,2012-11-30 03:55:00
11:15 PM,24.8,24.8,100,30.35,10.0,Calm,Calm,-,N/A,,Clear,0,2012-11-30 04:15:00
11:35 PM,26.6,24.8,93,30.35,10.0,Calm,Calm,-,N/A,,Clear,0,2012-11-30 04:35:00
11:55 PM,24.8,23.0,93,30.34,10.0,Calm,Calm,-,N/A,,Clear,0,2012-11-30 04:55:00